Regional Weather Roundup
Issued by NWS Albany, NY

Home | Current Version | Previous Version | Graphics & Text | Print | Product List | Glossary On
Versions: 1 2 3 4 5 6 7 8 9 10 11 12 13 14 15 16 17 18 19 20 21 22 23 24 25 26 27
000
ASUS41 KALY 180710
RWRALY

NEW YORK STATE HOURLY WEATHER ROUNDUP
NATIONAL WEATHER SERVICE ALBANY NY
200 AM EST THU JAN 18 2018

NOTE: "FAIR" INDICATES FEW OR NO CLOUDS BELOW 12,000 FEET WITH NO
SIGNIFICANT WEATHER AND/OR NO OBSTRUCTIONS TO VISIBILITY.

NYZ032-033-038>043-046>054-057>066-NYZ062>081-082-084-180800-
EAST


CITY           SKY/WX    TMP DP  RH WIND       PRES   REMARKS
ALBANY         FAIR       6   1  80 CALM      30.11F
GLENS FALLS    FAIR       6   5  95 S3        30.08F
POUGHKEEPSIE   FAIR       3   1  91 CALM      30.13S FOG
NEWBURGH       CLEAR      7   7 100 CALM      30.11F
MONTGOMERY     FAIR      16   6  65 W8        30.09F WCI   5
WHITE PLAINS   FAIR      18  11  74 NW8       30.09F WCI   8
ISLIP          FAIR      23  13  65 N13       30.08F WCI  11
NEW YORK CITY  FAIR      22  11  62 NW14      30.13F WCI   9
CENTRAL PARK   FAIR      21   9  59 W6        30.15S WCI  13
$$

NYZ005>009-017-018-044>046-055-056-180800-
CENTRAL


CITY           SKY/WX    TMP DP  RH WIND       PRES   REMARKS
FULTON         FAIR       1  -3  83 CALM      30.10S
SYRACUSE       FAIR       0  -2  91 E5        30.10F WCI -10
ROME           FAIR      -2  -5  87 CALM      30.12F
ELMIRA         FAIR      11   4  73 W6        30.09F WCI   1
BINGHAMTON     FAIR       8   3  80 SW9       30.01F WCI  -5
MONTICELLO     FAIR       4   2  91 W7        30.05F WCI  -8
$$

NYZ026>034-041>043-087-180800-
NORTH


CITY           SKY/WX    TMP DP  RH WIND       PRES   REMARKS
WATERTOWN      CLOUDY    18  14  84 S10       30.05S WCI   6
FORT DRUM      NOT AVBL
OGDENSBURG     CLOUDY    22  19  86 S9        30.01S WCI  12
MASSENA        CLOUDY    22  18  85 SW13      30.02S WCI  10
SARANAC LAKE   CLOUDY    14  12  92 SW7       29.94R WCI   4
PLATTSBURGH    CLOUDY    20  10  65 S7        30.04R WCI  11
$$

NYZ001>004-010>016-019>021-085-180800-
WEST


CITY           SKY/WX    TMP DP  RH WIND       PRES   REMARKS
NIAGARA FALLS  FAIR      20  11  68 SW28G38   30.06F WCI   2
BUFFALO        FAIR      14   7  73 SW15      30.07F WCI  -1
DUNKIRK        FAIR      13   4  67 S16       30.12F WCI  -3
JAMESTOWN      FAIR       6   2  83 SW9       30.08F WCI  -8
WELLSVILLE     FAIR      10   5  80 W12       30.02F WCI  -5
ROCHESTER      FAIR      16   8  71 SW10      30.07F WCI   4
PENN YAN       FAIR      15   4  61 SW12      30.05F WCI   2
$$

             KEY
       WCI = WIND CHILL INDEX
       VSB = VISIBILITY
       HX  = HEAT INDEX
$$




USA.gov is the U.S. government's official web portal to all federal, state and local government web resources and services.